Showing default

IRIDIUM 176, 43923

Orbit data source: Space-Track

IRIDIUM 176, 43923 is a payload satellite owned by Iridium (US) in LEO that was launched on Fri, 11 Jan 2019 UTC via an FALCON 9 launch vehicle from the Air Force Western Test Range (AFWTR). Payload-class satellites include a variety of spacecraft equipped with specific instruments for various scientific and technological missions. These include communications satellites like Starlink; space stations such as the ISS; scientific satellites like the Hubble; Earth observation satellites from companies like Planet Labs, Umbra, and HawkEye 360; GPS; miniature CubeSats for education and research; and military/defense satellites.

Loading next visibility...
Identifier
43923, 2019-002B
Orbit
LEO
Country
Flag of USUS
Related business
Manufacturer
NGIS SSG Gilbert
Mission
Operational Commercial Communications
Bus & Motor
ELITEBUS, Unknown motor
Mass
860 kg wet, 700 kg dry
Launch date (UTC)
2019-01-11 (7 years ago)
Launch vehicle
FALCON 9
Launch site
Air Force Western Test Range (AFWTR)
Object type
Payload
Rocket body
Debris
Shape & HBR
Trap Box + 2 Pan, 4.8 m
Radar Cross Section
10.154 m², Large (>1 m²)

Expand to show TLE details & history
Last TLE update: 12 hours ago

TLE from 12 hours ago
0 IRIDIUM 176
1 43923U 19002B   25310.08897449  .00001471  00000-0  22938-3 0  9993
2 43923  86.6063  86.8400 0001687  80.0119 280.1288 14.72259467366426
Epoch: 2025-11-06T02:08Z
TLE epoch observation values (Epoch: 2025-11-06T02:08:07.395Z)
Latitude
-0.0001°
Longitude
9.25688°
Altitude
656.763 km
Speed
7.529 km/s
True Right ascension
05h 47m 21s
True Declination
0° 00' 00"
Sunlit
Object was in full shadow at epoch
Visualization orbit readout
Latitude
Unknown
Longitude
Unknown
Altitude
Unknown
Speed
Unknown
Apparent Right ascension
Unknown
Apparent Declination
Unknown
Sunlit
N/A
Visualization observer readout
Local Sidereal Time
10:30:46
Azimuth
Unknown
Elevation
Unknown
Doppler factor
Unknown
Orbital elements
Apogee altitude
651.957 km
Perigee altitude
649.585 km
Semi-major axis
7,028.908 km
Eccentricity
0.00017
Inclination
86.6063°
RAAN
86.84°
Arg. of periapsis
80.0119°
True anomaly
280.10977°
Mean anomaly
280.1288°
Eccentric anomaly
280.11928°
Mean motion
3.68308 °/min
Orbital period
97.74 mins
BSTAR
0.00022938
Loading maneuver chart data...
Computing Atmospheric mass density...
Loading historical data...
Loading historical data...
Loading historical data...
Loading historical data...
Loading historical data...
Loading historical data...
Loading historical data...

Documentation

Showing up to 5 results
|